Location: Gro�bocka
(50.8204°N, 11.9702°E)
Time: 01:14:30
(UTC+00:00)

Meteor 2-17 Rocket - Pass Details

Date: 29 October 2020
Orbit: 934 x 957 km, 82.5° (Epoch: 23 November)

Event Time Altitude Azimuth Distance (km) Brightness Sun altitude
Rises 18:35:39 0° 349° (N) 3,607 7.7 -26.3°
Reaches altitude 10° 18:38:09 10° 351° (N) 2,658 7.0 -26.7°
Maximum altitude 18:44:14 81° 79° (E) 953 4.2 -27.7°
Enters shadow 18:44:33 78° 123° (ESE) 961 4.2 -27.7°
